This demonstration page uses our WeatherBlox Daily Observations layout. Learn more.

Left ArrowRight Arrow

39.51506, -84.39828

Hourly Observations for December 19, 2018

Temp ( °F °C ) Dew Point ( °F °C ) Humidity (%) Winds ( mph kmh ) Pressure ( in mb ) Visibility ( mi km ) Precip ( " mm )
12:15 am 00:15 Clear with Mist and Fog 26 -3.4 25 -3.7 98 98 Calm 30.15 1021 3 4 0.00 0.00
12:35 am 00:35 Clear with Mist and Fog 26 -3.3 26 -3.6 98 98 Calm 30.15 1021 2 3 0.00 0.00
12:55 am 00:55 Mostly Cloudy with Freezing Fog 26 -3.4 25 -3.7 98 98 Calm 30.15 1021 1 1 0.00 0.00
1:15 am 01:15 Mostly Cloudy with Freezing Fog 25 -3.7 25 -4 98 98 Calm 30.15 1021 1 1 0.00 0.00
1:35 am 01:35 Clear with Mist and Fog 26 -3.5 25 -3.9 97 97 Calm 30.12 1020 4 6 0.00 0.00
1:55 am 01:55 Clear with Mist and Fog 24 -4.2 24 -4.7 96 96 Calm 30.12 1020 7 11 0.00 0.00
2:15 am 02:15 Clear with Mist and Fog 25 -3.7 25 -4.1 97 97 Calm 30.12 1020 5 8 0.00 0.00
2:35 am 02:35 Clear with Mist and Fog 25 -3.7 24 -4.2 96 96 Calm 30.12 1020 4 6 0.00 0.00
2:55 am 02:55 Mostly Cloudy with Mist and Fog 25 -3.9 24 -4.3 97 97 Calm 30.12 1020 1 1 0.00 0.00
3:15 am 03:15 Mostly Cloudy with Mist and Fog 24 -4.7 22 -5.3 96 96 Calm 30.12 1020 1 1 0.00 0.00
3:35 am 03:35 Clear with Mist and Fog 25 -3.9 24 -4.4 96 96 Calm 30.12 1020 3 5 0.00 0.00
3:55 am 03:55 Clear with Mist and Fog 25 -4.1 24 -4.6 96 96 Calm 30.12 1020 5 8 0.00 0.00
4:15 am 04:15 Clear with Mist and Fog 24 -4.6 23 -5.1 96 96 Calm 30.12 1020 7 11 0.00 0.00
4:35 am 04:35 Clear with Mist and Fog 24 -4.4 23 -5 96 96 Calm 30.09 1019 5 8 0.00 0.00
4:55 am 04:55 Clear with Mist and Fog 24 -4.7 23 -5.2 96 96 Calm 30.09 1019 7 11 0.00 0.00
5:15 am 05:15 Clear with Mist and Fog 23 -4.9 22 -5.5 96 96 Calm 30.09 1019 7 11 0.00 0.00
5:35 am 05:35 Clear with Mist and Fog 24 -4.3 23 -4.8 96 96 Calm 30.09 1019 5 8 0.00 0.00
5:55 am 05:55 Clear with Mist and Fog 24 -4.4 23 -5 96 96 Calm 30.09 1019 5 8 0.00 0.00
6:15 am 06:15 Clear 24 -4.4 23 -5 96 96 Calm 30.12 1020 7 11 0.00 0.00
6:35 am 06:35 Clear with Mist and Fog 24 -4.4 23 -4.9 96 96 Calm 30.12 1020 7 11 0.00 0.00
6:55 am 06:55 Clear 24 -4.3 23 -4.9 96 96 Calm 30.12 1020 7 11 0.00 0.00
7:15 am 07:15 Clear 24 -4.6 23 -5.2 96 96 Calm 30.12 1020 7 11 0.00 0.00
7:35 am 07:35 Clear with Mist and Fog 24 -4.2 23 -4.8 96 96 Calm 30.09 1019 5 8 0.00 0.00
7:55 am 07:55 Sunny with Mist and Fog 25 -4 24 -4.5 96 96 ENE 3 6 30.09 1019 5 8 0.00 0.00
8:15 am 08:15 Sunny with Mist and Fog 25 -3.7 25 -4.1 97 97 Calm 30.09 1019 5 8 0.00 0.00
8:35 am 08:35 Sunny with Mist and Fog 26 -3.1 26 -3.6 96 96 Calm 30.09 1019 7 11 0.00 0.00
8:55 am 08:55 Sunny with Mist and Fog 26 -3.1 26 -3.5 97 97 Calm 30.09 1019 7 11 0.00 0.00
9:15 am 09:15 Sunny with Mist and Fog 28 -2.5 27 -2.9 97 97 Calm 30.09 1019 5 8 0.00 0.00
9:35 am 09:35 Sunny with Mist and Fog 29 -1.6 28 -2 97 97 Calm 30.09 1019 7 11 0.00 0.00
9:55 am 09:55 Sunny with Mist and Fog 32 -0.1 30 -0.9 94 94 Calm 30.09 1019 7 11 0.00 0.00
10:15 am 10:15 Sunny 35 1.7 31 -0.5 86 86 Calm 30.09 1019 7 11 0.00 0.00
10:35 am 10:35 Sunny 37 2.9 30 -0.9 76 76 SSW 3 6 30.09 1019 10 16 0.00 0.00
10:55 am 10:55 Sunny 38 3.5 30 -1 73 73 Calm 30.09 1019 10 16 0.00 0.00
11:15 am 11:15 Sunny 40 4.7 31 -0.7 68 68 Calm 30.03 1017 10 16 0.00 0.00
11:35 am 11:35 Sunny 42 5.5 31 -0.3 67 67 SW 3 6 30.03 1017 10 16 0.00 0.00
11:55 am 11:55 Sunny 44 6.6 31 -0.3 62 62 Calm 30.00 1016 10 16 0.00 0.00
12:15 pm 12:15 Sunny 45 7.3 32 -0.1 60 60 S 6 9 30.00 1016 10 16 0.00 0.00
12:35 pm 12:35 Sunny 46 7.8 32 -0.1 58 58 WSW 5 7 29.97 1015 10 16 0.00 0.00
12:55 pm 12:55 Sunny 47 8.3 32 0 56 56 SW 7 11 29.97 1015 10 16 0.00 0.00
1:15 pm 13:15 Sunny 48 8.9 32 -0.2 53 53 SW 8 13 29.97 1015 10 16 0.00 0.00
1:35 pm 13:35 Sunny 49 9.7 31 -0.3 50 50 SSW 6 9 29.97 1015 10 16 0.00 0.00
1:55 pm 13:55 Sunny 51 10.4 31 -0.6 47 47 SSW 9 15 29.94 1014 10 16 0.00 0.00
2:15 pm 14:15 Sunny 51 10.7 29 -1.5 43 43 S 6 9 29.94 1014 10 16 0.00 0.00
2:35 pm 14:35 Sunny 52 11.2 28 -2.1 40 40 S 8 13 29.94 1014 10 16 0.00 0.00
2:55 pm 14:55 Sunny 52 11.3 28 -2.4 39 39 SSW 9 15 29.94 1014 10 16 0.00 0.00
3:15 pm 15:15 Sunny 52 11.3 28 -2.5 38 38 S 10 17 29.94 1014 10 16 0.00 0.00
3:35 pm 15:35 Sunny 52 11.1 29 -1.9 41 41 S 8 13 29.94 1014 10 16 0.00 0.00
3:55 pm 15:55 Sunny 51 10.8 29 -1.7 42 42 S 8 13 29.94 1014 10 16 0.00 0.00
4:15 pm 16:15 Sunny 49 9.4 29 -1.8 46 46 S 6 9 29.94 1014 10 16 0.00 0.00
4:35 pm 16:35 Sunny 49 9.4 30 -1.2 48 48 S 6 9 29.94 1014 10 16 0.00 0.00
4:55 pm 16:55 Sunny 49 9.2 30 -1.2 49 49 S 3 6 29.94 1014 10 16 0.00 0.00
5:15 pm 17:15 Sunny 48 9.1 29 -1.4 48 48 SSE 5 7 29.94 1014 10 16 0.00 0.00
5:35 pm 17:35 Clear 48 8.7 29 -1.6 49 49 ESE 3 6 29.94 1014 10 16 0.00 0.00
5:55 pm 17:55 Clear 41 4.8 30 -1.2 65 65 Calm 29.94 1014 10 16 0.00 0.00
6:15 pm 18:15 Clear 38 3.2 31 -0.3 78 78 Calm 29.94 1014 10 16 0.00 0.00
6:35 pm 18:35 Clear 36 2.4 31 -0.7 80 80 Calm 29.97 1015 10 16 0.00 0.00
6:55 pm 18:55 Clear 35 1.5 30 -1.2 82 82 Calm 29.94 1014 10 16 0.00 0.00
7:15 pm 19:15 Clear 35 1.6 31 -0.7 85 85 Calm 29.94 1014 10 16 0.00 0.00
7:35 pm 19:35 Clear 35 1.4 31 -0.8 85 85 Calm 29.94 1014 10 16 0.00 0.00
7:55 pm 19:55 Clear 34 0.9 30 -1.1 87 87 Calm 29.94 1014 10 16 0.00 0.00
8:15 pm 20:15 Clear 34 0.9 30 -1.1 87 87 Calm 29.94 1014 10 16 0.00 0.00
8:35 pm 20:35 Clear 35 1.4 31 -0.6 87 87 Calm 29.94 1014 10 16 0.00 0.00
8:55 pm 20:55 Clear 34 0.9 31 -0.8 89 89 Calm 29.94 1014 10 16 0.00 0.00
9:15 pm 21:15 Clear 33 0.8 30 -0.9 89 89 Calm 29.94 1014 10 16 0.00 0.00
9:35 pm 21:35 Clear 37 2.5 31 -0.5 81 81 Calm 29.94 1014 10 16 0.00 0.00
9:55 pm 21:55 Clear 37 2.7 31 -0.4 80 80 Calm 29.91 1013 10 16 0.00 0.00
10:15 pm 22:15 Clear 36 2 32 -0.1 86 86 Calm 29.94 1014 10 16 0.00 0.00
10:35 pm 22:35 Clear 37 2.5 33 0.3 86 86 Calm 29.88 1012 10 16 0.00 0.00
10:55 pm 22:55 Clear 37 2.6 33 0.5 86 86 Calm 29.94 1014 10 16 0.00 0.00
11:15 pm 23:15 Clear 36 2.4 33 0.7 89 89 Calm 29.94 1014 10 16 0.00 0.00
11:35 pm 23:35 Clear 36 2.2 33 0.4 88 88 Calm 29.91 1013 10 16 0.00 0.00
11:55 pm 23:55 Clear 36 2.3 33 0.4 87 87 Calm 29.91 1013 10 16 0.00 0.00

Powered by AerisWeather